Find Starlink 3078

NORAD ID: 49134 Int'l Des: 2021-082 Owner: SPXS Country: US Constellation: starlink operational
LEOCIRCULAR

当前视图

正在加载3D地球...

About Starlink 3078

Starlink 3078 (NORAD 49134) is a starlink constellation satellite (v1.5) launched Sep 14, 2021 by SPXS of US. It operates in LEO, CIRCULAR orbit with a mass of 297.00 kg.

关于 Starlink 3078

正在加载描述...

即将过境

Passes for default location (London). Set your location on the main map for personalized predictions.

高度历史

Loading altitude history...

两行轨道根数

1 49134U 21082E 26166.98881370 -.00000286 00000-0 -16202-4 0 9992
2 49134 70.0003 46.6131 0002827 266.2256 93.8580 14.98324591261909
Epoch: Jun 15, 2026 • Age: 11 hours

当前状态

高度 584.3 km
速度 7.57 km/s
星下点 -37.42°S, 177.98°W
发射日期 Sep 14, 2021
运行时间 4.7 years
类型 internet

技术详情

分类 Payload
质量 297.00 kg
干质量 275.00 kg
总质量 297.00 kg
长度 0.20 m
直径 2.80 m
跨度 9.00 m
形状 Box + pan
制造商 SPXS
平台类型 Starlink
阶段状态 In Orbit
所有者/国家 SPXS/US

Most Searched